Location: San Antonio
(29.4240°N, 98.4930°W)
Time: 07:16:16
(UTC-05:00)

ISS - All Passes

Search period start: 25 June 2016 00:00
Search period end: 05 July 2016 00:00
Orbit: 402 x 403 km, 51.6° (Epoch: 25 June)

Date Brightness Start Highest point End Pass type
(mag) Time Alt. Az. Time Alt. Az. Time Alt. Az.
25 Jun - 10:07:05 10° SW 10:10:19 80° NW 10:13:34 10° NE daylight
25 Jun - 18:15:48 10° NW 18:19:03 70° NE 18:22:18 10° SE daylight
26 Jun - 09:14:36 10° SSW 09:17:39 39° SE 09:20:43 10° ENE daylight
26 Jun - 10:52:22 10° WNW 10:54:12 14° NW 10:56:03 10° N daylight
26 Jun - 17:23:21 10° NNW 17:26:16 30° NE 17:29:11 10° ESE daylight
26 Jun - 19:00:31 10° W 19:02:29 15° SW 19:04:27 10° SSW daylight
27 Jun - 08:22:50 10° S 08:25:02 17° SE 08:27:15 10° E daylight
27 Jun - 09:58:29 10° W 10:01:18 26° NW 10:04:07 10° NNE daylight
27 Jun - 16:31:19 10° N 16:33:23 16° NE 16:35:26 10° ENE daylight
27 Jun - 18:06:53 10° WNW 18:09:53 34° SW 18:12:52 10° SSE daylight
28 Jun - 09:05:16 10° SW 09:08:29 60° NW 09:11:42 10° NE daylight
28 Jun - 17:13:56 10° NW 17:17:12 88° SW 17:20:27 10° SE daylight
29 Jun - 08:12:35 10° SSW 08:15:45 52° SE 08:18:55 10° NE daylight
29 Jun - 09:51:06 10° WNW 09:52:24 12° NW 09:53:42 10° NNW daylight
29 Jun - 16:21:21 10° NNW 16:24:25 37° NE 16:27:28 10° ESE daylight
29 Jun - 17:59:17 10° WSW 18:00:32 12° SW 18:01:49 10° SSW daylight
30 Jun - 07:20:32 10° S 07:23:06 22° SE 07:25:40 10° ENE daylight
30 Jun - 08:56:50 10° W 08:59:26 22° NW 09:02:03 10° NNE daylight
30 Jun - 15:29:08 10° N 15:31:31 19° NE 15:33:54 10° E daylight
30 Jun - 17:05:08 10° WNW 17:07:56 26° SW 17:10:44 10° S daylight
01 Jul - 08:03:25 10° WSW 08:06:34 46° NW 08:09:43 10° NNE daylight
01 Jul - 14:38:04 10° NNE 14:38:31 10° NE 14:38:58 10° NE daylight
01 Jul - 16:12:00 10° NW 16:15:15 67° SW 16:18:28 10° SE daylight
02 Jul - 07:10:33 10° SW 07:13:46 70° SE 07:17:01 10° NE daylight
02 Jul - 15:19:18 10° NNW 15:22:28 48° NE 15:25:37 10° ESE daylight
03 Jul - 06:18:15 10° S 06:21:04 27° SE 06:23:53 10° ENE daylight
03 Jul - 07:55:09 10° W 07:57:29 18° NW 07:59:50 10° N daylight
03 Jul - 14:26:55 10° NNW 14:29:34 22° NE 14:32:13 10° E daylight
03 Jul - 16:03:22 10° WNW 16:05:54 21° SW 16:08:25 10° S daylight
04 Jul - 05:27:02 10° SSE 05:28:25 12° SE 05:29:48 10° E visible
04 Jul - 07:01:32 10° WSW 07:04:33 36° NW 07:07:36 10° NNE daylight
04 Jul - 13:35:10 10° N 13:36:34 12° NE 13:37:57 10° ENE daylight
04 Jul - 15:10:01 10° NW 15:13:13 50° SW 15:16:22 10° SSE daylight
